Retour au catalogue

STARLINK-35531

ActifCommunicationsVLEO
NORAD 66112·PAYLOAD·🇺🇸 United States

Lancé Oct 19, 2025 depuis Vandenberg Space Force Base

Loading…

Prochains Passages (prochaines 24 heures)

TLE

FraisSource: CelesTrak SupGP

Époque: Sep 15, 2026, 03:10 UTC

1 66112C 25236AC  26258.13243056  .00022161  00000+0  65494-3 0  2581
2 66112  53.1574 302.5209 0001372 106.6523  85.6216 15.34370945    10

Suivez STARLINK-35531 en temps réel avec AllMySat

Download on the App Store